[[{"header":{"parameterUnit":"m.s-1","parameterCategory":1,"la1":30.2991,"la2":30.254,"lo1":-89.0895,"lo2":-89.0444,"dy":0.0017,"dx":0.0017,"nx":28,"ny":28,"refTime":"2023-09-07T09:00:00:Z","depth":0,"parameterNumber":2,"parameterNumberName":"U-component_of_WINDS"},"data":[0,0,0,0,0,0,0,0,0,0,0,0,0,0,0,0,0,0,0,0,0,0,0,0,0,0,0,0,0,0,0,0,0,0,0,0,0,0,0,0,0,0,0,0,0,0,0,0,0,0,0,0,0,0,0,0,0,0,0.9968,0.9968,0,1.0021,1.0021,1.0022,1.005,1.005,1.005,1.005,1.0107,1.0108,1.011,0,0,0,0,0,0,0,0,0,0,0,0,0,0.9894,0.9895,0.9968,0.9968,0.9969,1.0021,1.0021,1.0022,1.005,1.005,1.005,1.005,1.0106,1.0108,1.011,0,0,0,0,0,0,0,0,0,0,0,0,0,0.9934,0.9895,0.9968,0.9989,0.9991,1.002,1.0021,1.0022,1.005,1.005,1.005,1.005,1.0106,1.0108,1.011,1.0123,0,0,1.0117,1.0118,0,0,0,0,0,0,0,0,0.9932,0.9937,0.9985,0.9988,0.999,1.0029,1.0016,1.0056,1.005,1.0028,1.005,1.005,1.0081,1.0085,1.0095,1.0125,1.0128,1.0117,1.0118,1.0119,1.012,0,0,0,0,0,0,0,0.9929,0.9935,0.9989,0.9986,0.9989,0.9997,1.0003,1.0024,1.0053,1.003,1.0032,1.0037,1.0082,1.0093,1.0097,1.0129,1.0117,1.0119,1.012,1.0121,1.0173,1.0173,0,0,0,0,0,0,0.9922,0.9932,0.9987,0.999,0.9961,0.9998,1.0005,1.0016,1.0053,1.0059,1.0037,1.0038,1.0089,1.0094,1.0099,1.0116,1.0119,1.0121,1.0123,1.0173,1.0173,1.0173,0,0,0,0,0,0,0.9921,0.9927,0.9985,0.9962,0.997,0.9999,1.0012,1.0017,1.0028,1.0059,1.0065,1.0042,1.0089,1.0095,1.0116,1.0119,1.0122,1.0124,1.0173,1.0173,1.0173,1.0151,0,0,0,0,0,0,0.9918,0.9926,0.9931,0.9962,0.9971,1.0001,1.0012,1.0018,1.0031,1.0033,1.0065,1.0071,1.009,1.0113,1.0119,1.0122,1.0126,1.0173,1.0173,1.0173,1.0152,1.0151,1.015,0,0,0,0,0,0.9916,0.9923,0.9931,0.9937,0.9977,1.0001,1.0006,1.0027,1.0031,1.0036,1.0057,1.007,1.0117,1.0115,1.0121,1.0125,1.0173,1.0173,1.0173,1.0153,1.0151,1.015,0,0,0,0,0,0,0.9892,0.9927,0.9936,0.9954,0.9974,1.0006,1.0013,1.0025,1.0045,1.0046,1.0072,1.0079,1.0098,1.0114,1.011,1.014,1.0146,1.0148,1.0129,1.0128,1.0126,1.0122,1.0128,0,0,0,0,0,0.9889,0.9904,0.9935,0.9947,0.9957,0.9983,0.9994,1.0008,1.0031,1.004,1.0062,1.0084,1.0104,1.0117,1.0137,1.0154,1.0162,1.016,1.0159,1.0158,1.0159,1.017,1.017,1.0173,1.0173,1.0173,0,0,0.9882,0.9904,0.9912,0.9943,0.9961,0.9977,0.999,1.0007,1.002,1.0043,1.0064,1.008,1.0107,1.0126,1.0136,1.014,1.016,1.0158,1.0157,1.0159,1.017,1.017,1.017,1.0173,1.0173,1.0173,0,0,0.9879,0.9896,0.9909,0.9926,0.9952,0.9969,0.9972,1.0002,1.0014,1.0035,1.0053,1.0069,1.0103,1.0121,1.0135,1.0138,1.0152,1.0144,1.0138,1.0149,1.0148,1.0148,1.015,1.0151,1.0145,1.0145,1.0145,0,0.9868,0.9893,0.9914,0.993,0.9944,0.9964,0.9978,0.9994,1.0025,1.0034,1.0038,1.0081,1.0101,1.0125,1.0126,1.0136,1.0141,1.0141,1.0147,1.0147,1.0147,1.0149,1.015,1.0144,1.0144,1.0144,1.0145,0,0.9879,0.9895,0.9903,0.9932,0.9946,0.9961,0.9985,0.9997,1.001,1.0027,1.0049,1.0073,1.0098,1.0105,1.0118,1.0131,1.0133,1.0141,1.0149,1.0145,1.0148,1.0149,1.0143,1.0143,1.0143,1.0144,0,0,0.9862,0.9902,0.9905,0.9918,0.9949,0.9963,0.9979,1.0003,1.0013,1.0034,1.0049,1.0077,1.0085,1.01,1.0116,1.0125,1.0127,1.0132,1.0133,1.0131,1.0144,1.0137,1.0138,1.0136,1.0136,1.0136,1.0141,0,0.9863,0.9892,0.9912,0.9933,0.9949,0.997,0.9984,1.0004,1.0021,1.0038,1.0056,1.0076,1.0085,1.0094,1.0104,1.0125,1.013,1.0125,1.015,1.0151,1.0143,1.0139,1.0132,1.0136,1.0142,1.0143,1.0143,0,0.9869,0.9889,0.9911,0.994,0.9948,0.996,0.9984,1.0,1.0024,1.0035,1.0052,1.0068,1.0087,1.0092,1.0118,1.0114,1.0126,1.0138,1.0138,1.0142,1.0147,1.0143,1.0138,1.0138,1.0144,1.0144,1.0144,0,0.9855,0.9888,0.9905,0.9916,0.995,0.9959,0.9973,0.9997,1.0011,1.0032,1.0041,1.0064,1.0077,1.0095,1.0117,1.0119,1.0142,1.0148,1.0152,1.0152,1.0157,1.0156,1.0154,1.0163,1.0163,1.0163,1.0163,0,0.9855,0.9868,0.99,0.9911,0.9926,0.9949,0.9964,0.9981,1.0002,1.0017,1.0037,1.0051,1.0079,1.0096,1.0114,1.0133,1.0139,1.0149,1.0154,1.0148,1.0147,1.0156,1.0157,1.0164,1.0164,1.0163,1.0163,0,0.9842,0.9864,0.9885,0.9915,0.9923,0.9933,0.996,0.9972,0.9989,1.0008,1.0014,1.0042,1.0064,1.0087,1.0117,1.0129,1.0148,1.0154,1.0139,1.0142,1.0145,1.0144,1.0149,1.0151,1.0159,1.0158,1.0158,0,0.9841,0.9851,0.9883,0.9894,0.9908,0.9926,0.9939,0.9962,0.9976,1.0004,1.0013,1.0036,1.0056,1.009,1.0113,1.0137,1.0144,1.0144,1.0148,1.0141,1.0144,1.0144,1.0145,1.0143,1.0143,1.0143,1.0142,0,0.9836,0.9846,0.9865,0.9887,0.9902,0.9921,0.9941,0.9949,0.9977,0.9991,1.0013,1.0028,1.0059,1.0082,1.0108,1.0124,1.0138,1.0141,1.0143,1.0137,1.0128,1.0133,1.0137,1.0141,1.0141,1.0141,1.0141,1.0141,0.9829,0.984,0.9864,0.9884,0.9901,0.9919,0.9931,0.995,0.9969,0.9995,1.0008,1.003,1.0054,1.0091,1.0106,1.0125,1.0129,1.0132,1.0133,1.0133,1.0132,1.0125,1.013,1.013,1.013,1.013,1.013,0,0.9826,0.9842,0.986,0.9887,0.9903,0.9914,0.9936,0.9949,0.9968,0.9989,1.0008,1.0034,1.0056,1.0081,1.0106,1.0115,1.0122,1.0121,1.0121,1.0124,1.0127,1.0122,1.0115,1.0115,1.0115,1.0115,1.0115,1.0115,0.9826,0.9845,0.9858,0.9885,0.9901,0.9923,0.9935,0.9952,0.9969,0.9996,1.0015,1.003,1.0053,1.0079,1.0101,1.0108,1.0116,1.0112,1.0121,1.0123,1.0124,1.0125,1.0121,1.0114,1.0114,1.0118,1.0118,1.0118]},{"header":{"parameterUnit":"m.s-1","parameterCategory":1,"la1":30.2991,"la2":30.254,"lo1":-89.0895,"lo2":-89.0444,"dy":0.0017,"dx":0.0017,"nx":28,"ny":28,"refTime":"2023-09-07T09:00:00:Z","depth":0,"parameterNumber":3,"parameterNumberName":"V-component_of_WINDS"},"data":[0,0,0,0,0,0,0,0,0,0,0,0,0,0,0,0,0,0,0,0,0,0,0,0,0,0,0,0,0,0,0,0,0,0,0,0,0,0,0,0,0,0,0,0,0,0,0,0,0,0,0,0,0,0,0,0,0,0,2.1895,2.1896,0,2.1943,2.1944,2.1944,2.1926,2.1925,2.1924,2.1923,2.1971,2.1973,2.1975,0,0,0,0,0,0,0,0,0,0,0,0,0,2.1782,2.1785,2.1895,2.1896,2.1896,2.1943,2.1944,2.1945,2.1927,2.1925,2.1924,2.1923,2.197,2.1973,2.1976,0,0,0,0,0,0,0,0,0,0,0,0,0,2.1831,2.1785,2.1895,2.1893,2.1893,2.1943,2.1944,2.1945,2.1927,2.1925,2.1924,2.1922,2.1969,2.1973,2.1976,2.203,0,0,2.1987,2.1988,0,0,0,0,0,0,0,0,2.1828,2.1835,2.1893,2.1893,2.1894,2.1927,2.1922,2.1973,2.1927,2.1914,2.1923,2.1921,2.1958,2.1962,2.1975,2.2032,2.2034,2.1987,2.1989,2.199,2.1991,0,0,0,0,0,0,0,2.1825,2.1833,2.1914,2.1893,2.1894,2.1888,2.1893,2.1931,2.1944,2.1915,2.1914,2.192,2.1958,2.1971,2.1976,2.2035,2.1987,2.199,2.1992,2.1993,2.2134,2.2135,0,0,0,0,0,0,2.1822,2.183,2.1913,2.1915,2.1856,2.1891,2.1897,2.1918,2.1944,2.1946,2.1921,2.1919,2.1966,2.1972,2.1977,2.2038,2.199,2.1994,2.1996,2.2132,2.2134,2.2136,0,0,0,0,0,0,2.182,2.1829,2.1911,2.1873,2.1882,2.1895,2.1919,2.192,2.1934,2.1949,2.1951,2.1933,2.1965,2.1972,2.2016,2.2039,2.1995,2.1998,2.213,2.2133,2.2135,2.2163,0,0,0,0,0,0,2.1816,2.1829,2.1851,2.1873,2.1885,2.195,2.192,2.1922,2.194,2.1937,2.196,2.1963,2.1964,2.2011,2.2019,2.2043,2.2001,2.2128,2.2131,2.2134,2.216,2.2166,2.2171,0,0,0,0,0,2.1812,2.1858,2.1852,2.1862,2.1913,2.1952,2.1958,2.196,2.1942,2.1963,2.1972,2.1962,2.2036,2.2015,2.2025,2.205,2.2126,2.213,2.2134,2.2157,2.2165,2.2171,0,0,0,0,0,0,2.1839,2.1861,2.1855,2.1909,2.1928,2.1949,2.1975,2.1968,2.1993,2.1989,2.199,2.1995,2.2039,2.205,2.2026,2.2101,2.2078,2.2084,2.2093,2.21,2.2105,2.2101,2.2004,0,0,0,0,0,2.185,2.1881,2.1899,2.1945,2.1955,2.1963,2.198,2.198,2.2,2.2008,2.202,2.2039,2.2066,2.2084,2.211,2.2161,2.2164,2.2183,2.2189,2.2193,2.2198,2.2221,2.2228,2.2148,2.2148,2.2148,0,0,2.1876,2.1892,2.1911,2.195,2.1965,2.1994,2.197,2.2004,2.2025,2.2013,2.2053,2.2063,2.2084,2.213,2.2151,2.214,2.222,2.2198,2.2202,2.2204,2.2225,2.2233,2.224,2.2151,2.215,2.215,0,0,2.1936,2.1953,2.199,2.2005,2.2027,2.2032,2.2041,2.2061,2.2067,2.2108,2.2097,2.2122,2.217,2.2184,2.2197,2.2258,2.2248,2.2266,2.2295,2.2318,2.2324,2.2329,2.2347,2.2354,2.2271,2.2271,2.2271,0,2.1964,2.2009,2.201,2.2043,2.2059,2.2048,2.2084,2.2098,2.2128,2.2138,2.2125,2.2182,2.2196,2.2243,2.2257,2.227,2.2277,2.2263,2.2323,2.2329,2.2334,2.235,2.2358,2.2273,2.2272,2.2272,2.2272,0,2.204,2.2071,2.2099,2.2126,2.2145,2.218,2.2183,2.2202,2.2199,2.2204,2.2243,2.2259,2.2286,2.2298,2.2296,2.2343,2.2335,2.2323,2.2299,2.2343,2.2358,2.2365,2.2275,2.2275,2.2274,2.2274,0,0,2.2119,2.2144,2.2154,2.2163,2.2186,2.2209,2.2241,2.2267,2.2281,2.2301,2.2326,2.2365,2.2352,2.2367,2.2367,2.2387,2.2428,2.2372,2.2372,2.2378,2.2476,2.2483,2.2491,2.2422,2.2424,2.2425,2.2473,0,2.2178,2.2234,2.2234,2.2286,2.2312,2.23,2.2328,2.2343,2.2348,2.237,2.2375,2.2401,2.2385,2.2393,2.2413,2.2419,2.2447,2.2416,2.2442,2.2443,2.2435,2.2499,2.2508,2.2553,2.248,2.2481,2.2482,0,2.2254,2.2274,2.2328,2.2342,2.2353,2.2378,2.2398,2.2421,2.2436,2.2438,2.2453,2.2448,2.2478,2.2455,2.2494,2.2472,2.2483,2.2488,2.2489,2.249,2.2463,2.2498,2.2568,2.2573,2.2492,2.2491,2.249,0,2.2301,2.2342,2.2378,2.2388,2.2406,2.2423,2.2431,2.2445,2.2459,2.2477,2.2486,2.2508,2.2519,2.2535,2.2535,2.2519,2.2573,2.2551,2.2573,2.2573,2.2583,2.2582,2.2652,2.2595,2.2595,2.2595,2.2595,0,2.2364,2.2397,2.2398,2.2421,2.2455,2.2454,2.2487,2.2494,2.2506,2.2527,2.2519,2.2539,2.2539,2.2559,2.2559,2.2589,2.2595,2.2596,2.2595,2.2595,2.2594,2.26,2.2596,2.2597,2.2597,2.2596,2.2596,0,2.2422,2.2425,2.2463,2.2476,2.2479,2.2504,2.2514,2.2534,2.2537,2.2564,2.257,2.2575,2.2597,2.2599,2.2626,2.2626,2.2661,2.2658,2.2655,2.2654,2.2674,2.2671,2.2748,2.2757,2.2697,2.2698,2.2698,0,2.2461,2.2485,2.2499,2.2512,2.2521,2.2544,2.2557,2.2556,2.2569,2.2587,2.2603,2.2625,2.2642,2.2677,2.2683,2.2702,2.2697,2.2723,2.27,2.2698,2.2693,2.2691,2.2691,2.2727,2.2727,2.2728,2.2728,0,2.2528,2.2527,2.2547,2.2566,2.2581,2.2597,2.2611,2.2622,2.2622,2.2638,2.266,2.2673,2.2698,2.2718,2.2736,2.2743,2.2735,2.2736,2.2741,2.274,2.2736,2.2735,2.2664,2.2733,2.2733,2.2733,2.2732,2.2732,2.2575,2.2594,2.2606,2.2626,2.2636,2.2649,2.2666,2.2671,2.2689,2.2709,2.2708,2.2731,2.2742,2.2765,2.2774,2.2791,2.2782,2.2791,2.2793,2.2794,2.2794,2.2735,2.2794,2.2794,2.2794,2.2794,2.2794,0,2.2638,2.2644,2.2664,2.2682,2.2698,2.2689,2.2703,2.2716,2.2736,2.2748,2.2764,2.2787,2.2806,2.2812,2.2829,2.2841,2.2838,2.2846,2.2844,2.2844,2.2803,2.2795,2.2848,2.2848,2.2848,2.2848,2.2848,2.2848,2.2673,2.2703,2.2703,2.2736,2.2743,2.2765,2.2773,2.2783,2.2792,2.2818,2.2833,2.2837,2.2845,2.2862,2.2878,2.2879,2.2885,2.2893,2.2893,2.2853,2.2848,2.2843,2.2835,2.2895,2.2896,2.2932,2.2932,2.2933]}]]